"Sample Date","Sample Time","Sample Value","Units","Flow Rate","Sample Interval","Number Channels","Micron Size 0","Counts/Channel 0","Micron Size 1","Counts/Channel 1","Micron Size 2","Counts/Channel 2","Micron Size 3","Counts/Channel 3","Micron Size 4","Counts/Channel 4","Micron Size 5","Counts/Channel 5","Micron Size 6","Counts/Channel 6","Micron Size 7","Counts/Channel 7","Micron Size 8","Counts/Channel 8","Micron Size 9","Counts/Channel 9","Micron Size 10","Counts/Channel 10","Micron Size 11","Counts/Channel 11","Micron Size 12","Counts/Channel 12","Micron Size 13","Counts/Channel 13","Micron Size 14","Counts/Channel 14","Micron Size 15","Counts/Channel 15","Micron Size 16","Counts/Channel 16","Micron Size 17","Counts/Channel 17","Micron Size 18","Counts/Channel 18","Micron Size 19","Counts/Channel 19","Micron Size 20","Counts/Channel 20","Micron Size 21","Counts/Channel 21","Micron Size 22","Counts/Channel 22","Micron Size 23","Counts/Channel 23","Micron Size 24","Counts/Channel 24","Micron Size 25","Counts/Channel 25","Micron Size 26","Counts/Channel 26","Micron Size 27","Counts/Channel 27","Micron Size 28","Counts/Channel 28","Micron Size 29","Counts/Channel 29","Micron Size 30","Counts/Channel 30","Micron Size 31","Counts/Channel 31"
"04/01/08","22:00:00",17693.000,"cc",28353.912,6.00,6,0.100,15903.000,0.200,543.000,0.300,470.000,0.500,575.000,1.000,202.000,5.000,0
"04/01/08","22:00:06",17768.000,"cc",28389.588,6.00,6,0.100,15867.000,0.200,583.000,0.300,489.000,0.500,589.000,1.000,240.000,5.000,0
"04/01/08","22:00:12",17897.000,"cc",28382.871,6.00,6,0.100,16014.000,0.200,612.000,0.300,457.000,0.500,589.000,1.000,225.000,5.000,0
"04/01/08","22:00:18",17658.000,"cc",28378.555,6.00,6,0.100,15775.000,0.200,622.000,0.300,466.000,0.500,575.000,1.000,220.000,5.000,0
"04/01/08","22:00:24",17643.000,"cc",28298.709,6.00,6,0.100,15887.000,0.200,544.000,0.300,457.000,0.500,561.000,1.000,194.000,5.000,0
"04/01/08","22:00:30",17396.000,"cc",28315.029,6.00,6,0.100,15599.000,0.200,556.000,0.300,466.000,0.500,579.000,1.000,196.000,5.000,0
"04/01/08","22:00:36",17477.000,"cc",28338.297,6.00,6,0.100,15711.000,0.200,585.000,0.300,435.000,0.500,524.000,1.000,222.000,5.000,0
"04/01/08","22:00:42",17404.000,"cc",28313.797,6.00,6,0.100,15629.000,0.200,550.000,0.300,446.000,0.500,571.000,1.000,208.000,5.000,0
"04/01/08","22:00:48",17310.000,"cc",28246.404,6.00,6,0.100,15540.000,0.200,590.000,0.300,433.000,0.500,525.000,1.000,222.000,5.000,0
"04/01/08","22:00:54",17467.000,"cc",28301.645,6.00,6,0.100,15559.000,0.200,619.000,0.300,459.000,0.500,625.000,1.000,205.000,5.000,0
"04/01/08","22:01:00",17357.000,"cc",28369.529,6.00,6,0.100,15566.000,0.200,609.000,0.300,441.000,0.500,557.000,1.000,184.000,5.000,0
"04/01/08","22:01:06",17344.000,"cc",28333.670,6.00,6,0.100,15559.000,0.200,589.000,0.300,448.000,0.500,558.000,1.000,190.000,5.000,0
"04/01/08","22:01:12",16964.000,"cc",28339.086,6.00,6,0.100,15191.000,0.200,561.000,0.300,432.000,0.500,569.000,1.000,211.000,5.000,0
"04/01/08","22:01:18",16794.000,"cc",28301.254,6.00,6,0.100,15069.000,0.200,548.000,0.300,460.000,0.500,524.000,1.000,193.000,5.000,0
"04/01/08","22:01:24",17095.000,"cc",28187.174,6.00,6,0.100,15119.000,0.200,631.000,0.300,510.000,0.500,593.000,1.000,242.000,5.000,0
"04/01/08","22:01:30",17291.000,"cc",28371.260,6.00,6,0.100,15313.000,0.200,678.000,0.300,477.000,0.500,604.000,1.000,219.000,5.000,0
"04/01/08","22:01:36",17149.000,"cc",28364.457,6.00,6,0.100,15199.000,0.200,594.000,0.300,508.000,0.500,622.000,1.000,226.000,5.000,0
"04/01/08","22:01:42",17383.000,"cc",28291.822,6.00,6,0.100,15494.000,0.200,606.000,0.300,508.000,0.500,568.000,1.000,207.000,5.000,0
"04/01/08","22:01:48",17063.000,"cc",28321.783,6.00,6,0.100,15262.000,0.200,603.000,0.300,428.000,0.500,567.000,1.000,203.000,5.000,0
"04/01/08","22:01:54",17324.000,"cc",28359.217,6.00,6,0.100,15369.000,0.200,604.000,0.300,524.000,0.500,613.000,1.000,214.000,5.000,0
"04/01/08","22:02:00",17112.000,"cc",28314.697,6.00,6,0.100,15291.000,0.200,619.000,0.300,473.000,0.500,533.000,1.000,196.000,5.000,0
"04/01/08","22:02:06",17403.000,"cc",28342.666,6.00,6,0.100,15492.000,0.200,630.000,0.300,507.000,0.500,566.000,1.000,208.000,5.000,0
"04/01/08","22:02:12",17343.000,"cc",28332.065,6.00,6,0.100,15387.000,0.200,604.000,0.300,518.000,0.500,598.000,1.000,236.000,5.000,0
"04/01/08","22:02:18",17149.000,"cc",28263.961,6.00,6,0.100,15160.000,0.200,631.000,0.300,483.000,0.500,619.000,1.000,256.000,5.000,0
"04/01/08","22:02:24",17184.000,"cc",28267.451,6.00,6,0.100,15190.000,0.200,620.000,0.300,482.000,0.500,669.000,1.000,223.000,5.000,0
"04/01/08","22:02:30",16967.000,"cc",28372.074,6.00,6,0.100,15097.000,0.200,609.000,0.300,486.000,0.500,568.000,1.000,207.000,5.000,0
"04/01/08","22:02:36",16996.000,"cc",28370.606,6.00,6,0.100,15164.000,0.200,583.000,0.300,450.000,0.500,595.000,1.000,204.000,5.000,0
"04/01/08","22:02:42",16757.000,"cc",28233.197,6.00,6,0.100,14954.000,0.200,586.000,0.300,493.000,0.500,551.000,1.000,173.000,5.000,0
"04/01/08","22:02:48",16396.000,"cc",28325.113,6.00,6,0.100,14587.000,0.200,592.000,0.300,444.000,0.500,563.000,1.000,210.000,5.000,0
"04/01/08","22:02:54",15883.000,"cc",28379.424,6.00,6,0.100,14167.000,0.200,562.000,0.300,433.000,0.500,514.000,1.000,207.000,5.000,0
"04/01/08","22:03:00",15769.000,"cc",28385.693,6.00,6,0.100,14110.000,0.200,536.000,0.300,432.000,0.500,522.000,1.000,169.000,5.000,0
"04/01/08","22:03:06",15974.000,"cc",28347.662,6.00,6,0.100,14257.000,0.200,550.000,0.300,426.000,0.500,554.000,1.000,187.000,5.000,0
"04/01/08","22:03:12",15931.000,"cc",28339.365,6.00,6,0.100,14311.000,0.200,530.000,0.300,406.000,0.500,498.000,1.000,186.000,5.000,0
"04/01/08","22:03:18",16124.000,"cc",28253.084,6.00,6,0.100,14385.000,0.200,573.000,0.300,455.000,0.500,527.000,1.000,184.000,5.000,0
"04/01/08","22:03:24",16314.000,"cc",28224.022,6.00,6,0.100,14517.000,0.200,552.000,0.300,457.000,0.500,564.000,1.000,224.000,5.000,0
"04/01/08","22:03:30",16875.000,"cc",28100.590,6.00,6,0.100,14982.000,0.200,585.000,0.300,499.000,0.500,598.000,1.000,211.000,5.000,0
"04/01/08","22:03:36",17070.000,"cc",28291.631,6.00,6,0.100,15263.000,0.200,620.000,0.300,467.000,0.500,548.000,1.000,172.000,5.000,0
"04/01/08","22:03:42",16717.000,"cc",28222.709,6.00,6,0.100,15034.000,0.200,520.000,0.300,457.000,0.500,501.000,1.000,205.000,5.000,0
"04/01/08","22:03:48",17010.000,"cc",28353.875,6.00,6,0.100,15275.000,0.200,546.000,0.300,450.000,0.500,534.000,1.000,205.000,5.000,0
"04/01/08","22:03:54",17271.000,"cc",28259.486,6.00,6,0.100,15515.000,0.200,533.000,0.300,457.000,0.500,558.000,1.000,208.000,5.000,0
"04/01/08","22:04:00",17192.000,"cc",28381.357,6.00,6,0.100,15399.000,0.200,583.000,0.300,438.000,0.500,557.000,1.000,215.000,5.000,0
"04/01/08","22:04:06",17287.000,"cc",28288.740,6.00,6,0.100,15515.000,0.200,551.000,0.300,466.000,0.500,556.000,1.000,199.000,5.000,0
"04/01/08","22:04:12",16863.000,"cc",28309.195,6.00,6,0.100,15127.000,0.200,579.000,0.300,449.000,0.500,519.000,1.000,189.000,5.000,0
"04/01/08","22:04:18",16906.000,"cc",28320.697,6.00,6,0.100,15192.000,0.200,537.000,0.300,444.000,0.500,543.000,1.000,190.000,5.000,0
"04/01/08","22:04:24",17042.000,"cc",28352.416,6.00,6,0.100,15356.000,0.200,539.000,0.300,403.000,0.500,550.000,1.000,194.000,5.000,0
"04/01/08","22:04:30",17281.000,"cc",28339.311,6.00,6,0.100,15538.000,0.200,539.000,0.300,471.000,0.500,520.000,1.000,213.000,5.000,0
"04/01/08","22:04:36",17092.000,"cc",28329.522,6.00,6,0.100,15288.000,0.200,571.000,0.300,436.000,0.500,591.000,1.000,206.000,5.000,0
"04/01/08","22:04:42",16823.000,"cc",28316.473,6.00,6,0.100,15122.000,0.200,566.000,0.300,427.000,0.500,530.000,1.000,178.000,5.000,0
"04/01/08","22:04:48",17053.000,"cc",28335.748,6.00,6,0.100,15411.000,0.200,556.000,0.300,420.000,0.500,514.000,1.000,152.000,5.000,0
"04/01/08","22:04:54",17274.000,"cc",28361.254,6.00,6,0.100,15424.000,0.200,607.000,0.300,461.000,0.500,585.000,1.000,197.000,5.000,0
"04/01/08","22:05:00",17061.000,"cc",28320.945,6.00,6,0.100,15218.000,0.200,577.000,0.300,462.000,0.500,568.000,1.000,236.000,5.000,0
"04/01/08","22:05:06",17411.000,"cc",28374.922,6.00,6,0.100,15515.000,0.200,613.000,0.300,485.000,0.500,571.000,1.000,227.000,5.000,0
"04/01/08","22:05:12",17501.000,"cc",28342.592,6.00,6,0.100,15585.000,0.200,593.000,0.300,499.000,0.500,586.000,1.000,238.000,5.000,0
"04/01/08","22:05:18",17230.000,"cc",28264.004,6.00,6,0.100,15450.000,0.200,545.000,0.300,441.000,0.500,578.000,1.000,216.000,5.000,0
"04/01/08","22:05:24",17038.000,"cc",28274.965,6.00,6,0.100,15188.000,0.200,562.000,0.300,483.000,0.500,583.000,1.000,222.000,5.000,0
"04/01/08","22:05:30",17038.000,"cc",28290.342,6.00,6,0.100,15147.000,0.200,557.000,0.300,498.000,0.500,626.000,1.000,210.000,5.000,0
"04/01/08","22:05:36",17211.000,"cc",28247.211,6.00,6,0.100,15346.000,0.200,600.000,0.300,467.000,0.500,590.000,1.000,208.000,5.000,0
"04/01/08","22:05:42",17071.000,"cc",28211.898,6.00,6,0.100,15214.000,0.200,613.000,0.300,483.000,0.500,571.000,1.000,190.000,5.000,0
"04/01/08","22:05:48",17477.000,"cc",28385.057,6.00,6,0.100,15512.000,0.200,622.000,0.300,502.000,0.500,620.000,1.000,221.000,5.000,0
"04/01/08","22:05:54",17190.000,"cc",28376.967,6.00,6,0.100,15293.000,0.200,619.000,0.300,474.000,0.500,569.000,1.000,235.000,5.000,0
"04/01/08","22:06:00",17061.000,"cc",28379.922,6.00,6,0.100,15313.000,0.200,552.000,0.300,450.000,0.500,536.000,1.000,210.000,5.000,0
"04/01/08","22:06:06",17351.000,"cc",28322.266,6.00,6,0.100,15538.000,0.200,606.000,0.300,449.000,0.500,549.000,1.000,209.000,5.000,0
"04/01/08","22:06:12",17337.000,"cc",28320.984,6.00,6,0.100,15477.000,0.200,634.000,0.300,445.000,0.500,557.000,1.000,224.000,5.000,0
"04/01/08","22:06:18",16864.000,"cc",28314.731,6.00,6,0.100,15048.000,0.200,590.000,0.300,470.000,0.500,541.000,1.000,215.000,5.000,0
"04/01/08","22:06:24",17342.000,"cc",28213.803,6.00,6,0.100,15386.000,0.200,665.000,0.300,485.000,0.500,603.000,1.000,203.000,5.000,0
"04/01/08","22:06:30",17510.000,"cc",28303.287,6.00,6,0.100,15518.000,0.200,621.000,0.300,526.000,0.500,606.000,1.000,239.000,5.000,0
"04/01/08","22:06:36",16838.000,"cc",28256.869,6.00,6,0.100,15167.000,0.200,475.000,0.300,431.000,0.500,584.000,1.000,181.000,5.000,0
"04/01/08","22:06:42",17033.000,"cc",28338.289,6.00,6,0.100,15275.000,0.200,572.000,0.300,451.000,0.500,538.000,1.000,197.000,5.000,0
"04/01/08","22:06:48",17249.000,"cc",28299.742,6.00,6,0.100,15439.000,0.200,608.000,0.300,465.000,0.500,530.000,1.000,207.000,5.000,0
"04/01/08","22:06:54",17443.000,"cc",28262.713,6.00,6,0.100,15534.000,0.200,619.000,0.300,480.000,0.500,607.000,1.000,203.000,5.000,0
"04/01/08","22:07:00",17291.000,"cc",28333.561,6.00,6,0.100,15337.000,0.200,606.000,0.300,495.000,0.500,597.000,1.000,256.000,5.000,0
"04/01/08","22:07:06",17376.000,"cc",28317.652,6.00,6,0.100,15416.000,0.200,608.000,0.300,528.000,0.500,590.000,1.000,234.000,5.000,0
"04/01/08","22:07:12",17276.000,"cc",28266.088,6.00,6,0.100,15348.000,0.200,618.000,0.300,466.000,0.500,619.000,1.000,225.000,5.000,0
"04/01/08","22:07:18",17301.000,"cc",28337.566,6.00,6,0.100,15420.000,0.200,605.000,0.300,475.000,0.500,582.000,1.000,219.000,5.000,0
"04/01/08","22:07:24",17578.000,"cc",28346.459,6.00,6,0.100,15565.000,0.200,652.000,0.300,520.000,0.500,609.000,1.000,232.000,5.000,0
"04/01/08","22:07:30",17330.000,"cc",28348.387,6.00,6,0.100,15346.000,0.200,640.000,0.300,510.000,0.500,598.000,1.000,236.000,5.000,0
"04/01/08","22:07:36",17492.000,"cc",28320.404,6.00,6,0.100,15540.000,0.200,596.000,0.300,526.000,0.500,597.000,1.000,233.000,5.000,0
"04/01/08","22:07:42",17344.000,"cc",28381.088,6.00,6,0.100,15535.000,0.200,592.000,0.300,478.000,0.500,532.000,1.000,207.000,5.000,0
"04/01/08","22:07:48",17157.000,"cc",28412.848,6.00,6,0.100,15294.000,0.200,598.000,0.300,461.000,0.500,566.000,1.000,238.000,5.000,0
"04/01/08","22:07:54",17232.000,"cc",28268.428,6.00,6,0.100,15471.000,0.200,560.000,0.300,466.000,0.500,537.000,1.000,198.000,5.000,0
"04/01/08","22:08:00",17547.000,"cc",28219.857,6.00,6,0.100,15626.000,0.200,606.000,0.300,488.000,0.500,609.000,1.000,218.000,5.000,0
"04/01/08","22:08:06",17037.000,"cc",28246.719,6.00,6,0.100,15185.000,0.200,606.000,0.300,495.000,0.500,541.000,1.000,210.000,5.000,0
"04/01/08","22:08:12",17017.000,"cc",28335.654,6.00,6,0.100,15207.000,0.200,628.000,0.300,444.000,0.500,550.000,1.000,188.000,5.000,0
"04/01/08","22:08:18",16732.000,"cc",28352.539,6.00,6,0.100,14899.000,0.200,593.000,0.300,446.000,0.500,577.000,1.000,217.000,5.000,0
"04/01/08","22:08:24",17073.000,"cc",28339.664,6.00,6,0.100,15310.000,0.200,593.000,0.300,450.000,0.500,515.000,1.000,205.000,5.000,0
"04/01/08","22:08:30",17041.000,"cc",28400.186,6.00,6,0.100,15206.000,0.200,579.000,0.300,473.000,0.500,563.000,1.000,220.000,5.000,0
"04/01/08","22:08:36",17298.000,"cc",28376.016,6.00,6,0.100,15449.000,0.200,634.000,0.300,468.000,0.500,526.000,1.000,221.000,5.000,0
"04/01/08","22:08:42",16999.000,"cc",28258.984,6.00,6,0.100,15272.000,0.200,564.000,0.300,451.000,0.500,515.000,1.000,197.000,5.000,0
"04/01/08","22:08:48",16987.000,"cc",28310.684,6.00,6,0.100,15200.000,0.200,615.000,0.300,458.000,0.500,519.000,1.000,195.000,5.000,0
"04/01/08","22:08:54",17268.000,"cc",28400.232,6.00,6,0.100,15409.000,0.200,588.000,0.300,480.000,0.500,566.000,1.000,225.000,5.000,0
"04/01/08","22:09:00",17071.000,"cc",28434.555,6.00,6,0.100,15285.000,0.200,592.000,0.300,424.000,0.500,536.000,1.000,234.000,5.000,0
"04/01/08","22:09:06",16995.000,"cc",28399.789,6.00,6,0.100,15185.000,0.200,590.000,0.300,465.000,0.500,522.000,1.000,233.000,5.000,0
"04/01/08","22:09:12",17214.000,"cc",28277.186,6.00,6,0.100,15425.000,0.200,601.000,0.300,444.000,0.500,541.000,1.000,203.000,5.000,0
"04/01/08","22:09:18",17139.000,"cc",28192.914,6.00,6,0.100,15221.000,0.200,579.000,0.300,491.000,0.500,603.000,1.000,244.000,5.000,1.000
"04/01/08","22:09:24",17163.000,"cc",28354.701,6.00,6,0.100,15283.000,0.200,596.000,0.300,445.000,0.500,607.000,1.000,232.000,5.000,0
"04/01/08","22:09:30",16890.000,"cc",28494.363,6.00,6,0.100,15027.000,0.200,613.000,0.300,459.000,0.500,578.000,1.000,213.000,5.000,0
"04/01/08","22:09:36",17002.000,"cc",28282.371,6.00,6,0.100,15146.000,0.200,621.000,0.300,457.000,0.500,581.000,1.000,197.000,5.000,0
"04/01/08","22:09:42",17048.000,"cc",28167.025,6.00,6,0.100,15206.000,0.200,633.000,0.300,452.000,0.500,559.000,1.000,198.000,5.000,0
"04/01/08","22:09:48",16805.000,"cc",28333.941,6.00,6,0.100,15172.000,0.200,554.000,0.300,420.000,0.500,484.000,1.000,175.000,5.000,0
"04/01/08","22:09:54",16644.000,"cc",28264.438,6.00,6,0.100,14876.000,0.200,554.000,0.300,439.000,0.500,563.000,1.000,212.000,5.000,0
"04/01/08","22:10:00",16769.000,"cc",28347.002,6.00,6,0.100,14993.000,0.200,570.000,0.300,456.000,0.500,550.000,1.000,200.000,5.000,0
"04/01/08","22:10:06",16887.000,"cc",28389.957,6.00,6,0.100,14968.000,0.200,641.000,0.300,487.000,0.500,567.000,1.000,224.000,5.000,0
"04/01/08","22:10:12",16541.000,"cc",28328.891,6.00,6,0.100,14785.000,0.200,552.000,0.300,454.000,0.500,558.000,1.000,192.000,5.000,0
"04/01/08","22:10:18",16917.000,"cc",28320.750,6.00,6,0.100,15205.000,0.200,547.000,0.300,444.000,0.500,528.000,1.000,193.000,5.000,0
"04/01/08","22:10:24",16814.000,"cc",28349.078,6.00,6,0.100,14958.000,0.200,622.000,0.300,460.000,0.500,564.000,1.000,210.000,5.000,0
"04/01/08","22:10:30",17084.000,"cc",28338.041,6.00,6,0.100,15218.000,0.200,591.000,0.300,488.000,0.500,583.000,1.000,204.000,5.000,0
"04/01/08","22:10:36",16900.000,"cc",28260.231,6.00,6,0.100,15037.000,0.200,598.000,0.300,481.000,0.500,562.000,1.000,222.000,5.000,0
"04/01/08","22:10:42",17136.000,"cc",28279.662,6.00,6,0.100,15306.000,0.200,594.000,0.300,448.000,0.500,565.000,1.000,223.000,5.000,0
"04/01/08","22:10:48",17091.000,"cc",28286.547,6.00,6,0.100,15147.000,0.200,653.000,0.300,478.000,0.500,607.000,1.000,206.000,5.000,0
"04/01/08","22:10:54",17250.000,"cc",28257.674,6.00,6,0.100,15302.000,0.200,645.000,0.300,480.000,0.500,614.000,1.000,209.000,5.000,0
"04/01/08","22:11:00",17124.000,"cc",28312.875,6.00,6,0.100,15335.000,0.200,577.000,0.300,472.000,0.500,549.000,1.000,191.000,5.000,0
"04/01/08","22:11:06",17194.000,"cc",28364.693,6.00,6,0.100,15239.000,0.200,607.000,0.300,500.000,0.500,587.000,1.000,261.000,5.000,0
"04/01/08","22:11:12",16523.000,"cc",28473.184,6.00,6,0.100,14719.000,0.200,573.000,0.300,463.000,0.500,558.000,1.000,210.000,5.000,0
"04/01/08","22:11:18",16495.000,"cc",28372.852,6.00,6,0.100,14676.000,0.200,594.000,0.300,454.000,0.500,541.000,1.000,230.000,5.000,0
"04/01/08","22:11:24",16643.000,"cc",28302.986,6.00,6,0.100,14717.000,0.200,621.000,0.300,503.000,0.500,603.000,1.000,199.000,5.000,0
"04/01/08","22:11:30",16304.000,"cc",28186.768,6.00,6,0.100,14434.000,0.200,641.000,0.300,475.000,0.500,549.000,1.000,205.000,5.000,0
"04/01/08","22:11:36",16204.000,"cc",28223.389,6.00,6,0.100,14453.000,0.200,575.000,0.300,431.000,0.500,534.000,1.000,211.000,5.000,0
"04/01/08","22:11:42",16701.000,"cc",28341.434,6.00,6,0.100,14872.000,0.200,613.000,0.300,477.000,0.500,556.000,1.000,183.000,5.000,0
"04/01/08","22:11:48",16139.000,"cc",28261.100,6.00,6,0.100,14492.000,0.200,573.000,0.300,415.000,0.500,492.000,1.000,167.000,5.000,0
"04/01/08","22:11:54",16499.000,"cc",28281.236,6.00,6,0.100,14898.000,0.200,505.000,0.300,431.000,0.500,507.000,1.000,158.000,5.000,0
"04/01/08","22:12:00",16524.000,"cc",28356.715,6.00,6,0.100,14779.000,0.200,581.000,0.300,407.000,0.500,560.000,1.000,197.000,5.000,0
"04/01/08","22:12:06",16453.000,"cc",28378.688,6.00,6,0.100,14691.000,0.200,576.000,0.300,424.000,0.500,561.000,1.000,201.000,5.000,0
"04/01/08","22:12:12",16450.000,"cc",28431.356,6.00,6,0.100,14639.000,0.200,582.000,0.300,467.000,0.500,556.000,1.000,206.000,5.000,0
"04/01/08","22:12:18",16623.000,"cc",28212.721,6.00,6,0.100,14728.000,0.200,615.000,0.300,516.000,0.500,545.000,1.000,219.000,5.000,0
"04/01/08","22:12:24",16991.000,"cc",28220.457,6.00,6,0.100,14980.000,0.200,674.000,0.300,503.000,0.500,596.000,1.000,238.000,5.000,0
"04/01/08","22:12:30",16671.000,"cc",28333.170,6.00,6,0.100,14797.000,0.200,620.000,0.300,496.000,0.500,547.000,1.000,211.000,5.000,0
"04/01/08","22:12:36",16340.000,"cc",28408.826,6.00,6,0.100,14607.000,0.200,591.000,0.300,413.000,0.500,535.000,1.000,194.000,5.000,0
"04/01/08","22:12:42",16297.000,"cc",28353.580,6.00,6,0.100,14510.000,0.200,571.000,0.300,479.000,0.500,561.000,1.000,176.000,5.000,0
"04/01/08","22:12:48",16103.000,"cc",28376.303,6.00,6,0.100,14436.000,0.200,561.000,0.300,421.000,0.500,503.000,1.000,182.000,5.000,0
"04/01/08","22:12:54",16381.000,"cc",28247.178,6.00,6,0.100,14636.000,0.200,628.000,0.300,435.000,0.500,501.000,1.000,181.000,5.000,0
"04/01/08","22:13:00",15893.000,"cc",28316.264,6.00,6,0.100,14222.000,0.200,566.000,0.300,383.000,0.500,515.000,1.000,207.000,5.000,0
"04/01/08","22:13:06",15906.000,"cc",28305.045,6.00,6,0.100,14212.000,0.200,550.000,0.300,401.000,0.500,531.000,1.000,212.000,5.000,0
"04/01/08","22:13:12",15679.000,"cc",28326.178,6.00,6,0.100,13989.000,0.200,602.000,0.300,393.000,0.500,513.000,1.000,182.000,5.000,0
"04/01/08","22:13:18",15157.000,"cc",28444.244,6.00,6,0.100,13652.000,0.200,474.000,0.300,438.000,0.500,426.000,1.000,167.000,5.000,0
"04/01/08","22:13:24",14918.000,"cc",28326.445,6.00,6,0.100,13416.000,0.200,496.000,0.300,404.000,0.500,437.000,1.000,165.000,5.000,0
"04/01/08","22:13:30",15185.000,"cc",28185.982,6.00,6,0.100,13644.000,0.200,516.000,0.300,385.000,0.500,450.000,1.000,190.000,5.000,0
"04/01/08","22:13:36",15500.000,"cc",28222.158,6.00,6,0.100,13822.000,0.200,553.000,0.300,416.000,0.500,531.000,1.000,178.000,5.000,0
"04/01/08","22:13:42",15811.000,"cc",28311.861,6.00,6,0.100,14060.000,0.200,585.000,0.300,441.000,0.500,541.000,1.000,184.000,5.000,0
"04/01/08","22:13:48",16100.000,"cc",28234.500,6.00,6,0.100,14365.000,0.200,565.000,0.300,450.000,0.500,522.000,1.000,198.000,5.000,0
"04/01/08","22:13:54",15946.000,"cc",28364.537,6.00,6,0.100,14308.000,0.200,525.000,0.300,434.000,0.500,483.000,1.000,196.000,5.000,0
"04/01/08","22:14:00",16221.000,"cc",28277.691,6.00,6,0.100,14439.000,0.200,585.000,0.300,468.000,0.500,531.000,1.000,198.000,5.000,0
"04/01/08","22:14:06",16319.000,"cc",28362.760,6.00,6,0.100,14592.000,0.200,539.000,0.300,442.000,0.500,537.000,1.000,209.000,5.000,0
"04/01/08","22:14:12",15989.000,"cc",28378.533,6.00,6,0.100,14392.000,0.200,561.000,0.300,357.000,0.500,508.000,1.000,171.000,5.000,0
"04/01/08","22:14:18",16101.000,"cc",28316.436,6.00,6,0.100,14544.000,0.200,528.000,0.300,404.000,0.500,447.000,1.000,178.000,5.000,0
"04/01/08","22:14:24",16315.000,"cc",28373.981,6.00,6,0.100,14557.000,0.200,582.000,0.300,428.000,0.500,536.000,1.000,212.000,5.000,0
"04/01/08","22:14:30",16532.000,"cc",28404.566,6.00,6,0.100,14834.000,0.200,584.000,0.300,429.000,0.500,490.000,1.000,195.000,5.000,0
"04/01/08","22:14:36",16409.000,"cc",28225.762,6.00,6,0.100,14722.000,0.200,562.000,0.300,390.000,0.500,531.000,1.000,204.000,5.000,0
"04/01/08","22:14:42",16376.000,"cc",28343.660,6.00,6,0.100,14698.000,0.200,575.000,0.300,444.000,0.500,479.000,1.000,180.000,5.000,0
"04/01/08","22:14:48",16302.000,"cc",28329.783,6.00,6,0.100,14636.000,0.200,572.000,0.300,422.000,0.500,499.000,1.000,173.000,5.000,0
"04/01/08","22:14:54",16005.000,"cc",28258.885,6.00,6,0.100,14385.000,0.200,534.000,0.300,398.000,0.500,509.000,1.000,179.000,5.000,0
"04/01/08","22:15:00",16185.000,"cc",28193.795,6.00,6,0.100,14485.000,0.200,581.000,0.300,426.000,0.500,515.000,1.000,178.000,5.000,0
"04/01/08","22:15:06",16349.000,"cc",28309.645,6.00,6,0.100,14663.000,0.200,558.000,0.300,414.000,0.500,512.000,1.000,202.000,5.000,0
"04/01/08","22:15:12",16348.000,"cc",28322.869,6.00,6,0.100,14552.000,0.200,621.000,0.300,432.000,0.500,559.000,1.000,184.000,5.000,0
"04/01/08","22:15:18",16523.000,"cc",28407.822,6.00,6,0.100,14899.000,0.200,529.000,0.300,416.000,0.500,480.000,1.000,199.000,5.000,0
"04/01/08","22:15:24",16440.000,"cc",28368.756,6.00,6,0.100,14750.000,0.200,548.000,0.300,441.000,0.500,510.000,1.000,191.000,5.000,0
"04/01/08","22:15:30",16269.000,"cc",28255.856,6.00,6,0.100,14625.000,0.200,548.000,0.300,428.000,0.500,467.000,1.000,201.000,5.000,0
"04/01/08","22:15:36",16212.000,"cc",28324.773,6.00,6,0.100,14511.000,0.200,543.000,0.300,448.000,0.500,528.000,1.000,182.000,5.000,0
"04/01/08","22:15:42",16120.000,"cc",28381.805,6.00,6,0.100,14455.000,0.200,541.000,0.300,435.000,0.500,501.000,1.000,188.000,5.000,0
"04/01/08","22:15:48",16093.000,"cc",28311.533,6.00,6,0.100,14411.000,0.200,528.000,0.300,458.000,0.500,497.000,1.000,199.000,5.000,0
"04/01/08","22:15:54",16088.000,"cc",28328.326,6.00,6,0.100,14389.000,0.200,604.000,0.300,428.000,0.500,498.000,1.000,169.000,5.000,0
"04/01/08","22:16:00",16058.000,"cc",28351.859,6.00,6,0.100,14383.000,0.200,576.000,0.300,392.000,0.500,513.000,1.000,194.000,5.000,0
"04/01/08","22:16:06",16194.000,"cc",28307.693,6.00,6,0.100,14560.000,0.200,546.000,0.300,413.000,0.500,497.000,1.000,178.000,5.000,0
"04/01/08","22:16:12",15961.000,"cc",28308.750,6.00,6,0.100,14267.000,0.200,592.000,0.300,426.000,0.500,507.000,1.000,169.000,5.000,0
"04/01/08","22:16:18",15977.000,"cc",28305.856,6.00,6,0.100,14296.000,0.200,570.000,0.300,411.000,0.500,498.000,1.000,202.000,5.000,0
"04/01/08","22:16:24",16078.000,"cc",28359.672,6.00,6,0.100,14438.000,0.200,573.000,0.300,411.000,0.500,480.000,1.000,176.000,5.000,0
"04/01/08","22:16:30",16299.000,"cc",28269.813,6.00,6,0.100,14656.000,0.200,598.000,0.300,398.000,0.500,462.000,1.000,185.000,5.000,0
"04/01/08","22:16:36",16036.000,"cc",28308.133,6.00,6,0.100,14427.000,0.200,558.000,0.300,428.000,0.500,461.000,1.000,162.000,5.000,0
"04/01/08","22:16:42",15783.000,"cc",28263.275,6.00,6,0.100,14112.000,0.200,573.000,0.300,392.000,0.500,496.000,1.000,210.000,5.000,0